CZ-6A DEB

Satellite information

Favourite Embed

Satellite Type and Status

DEBRISIN ORBIT

Key statistics

Satellite CZ-6A DEB at a glance.

Uptime

969

Days in orbit

Revolutions

≈ 14.1

Per day

Orbit

SSO

Sun Synchronous Orbit

Inclination

98.8

Latest

Satellite identification and parameters

Extended collection of information and parameters for CZ-6A DEB.

Object identification

Identified? True

Debris? True

Object name: CZ-6A DEB

International designator: 2022-151XK

Object number (NORAD): 55513

Object ID (CCSDS): 55513

Country: PEOPLES REPUBLIC OF CHINA (PRC)

Current information (Y/N): Y

RCS size: SMALL

Orbital parameters

Period: 102.254 minutes

Inclination: 98.832 deg

SMA: 7243.456 km

Apoapsis: 902.433 km

Periapsis: 828.208 km

RAAN: 184.365 deg

Eccentricy: 0.0051236

Argument of periapsis: 245.235 deg

Mean anomaly: 114.3484 deg

Mean motion: 14.08263891 rev/day

Mean motion (dot): 0.00000279 rev/day2

B* drag term: 0.00018674 1/REarth

Two-line elements (TLE)

Creation date: July 5, 2025, 4:36 a.m.

Reference frame: TEME

Reference center: EARTH

Epoch: July 4, 2025, 6:39 p.m. UTC

TLE line 0: 0 CZ-6A DEB

TLE line 1: 1 55513U 22151XK 25185.77769714 .00000279 00000-0 18674-3 0 9996

TLE line 2: 2 55513 98.8320 184.3650 0051236 245.2350 114.3484 14.08263891132481

Live tracking on map

Real-time ground track for satellite CZ-6A DEB.

In-orbit conjunctions

A list of the most updated potential collisions computed for object CZ-6A DEB.

Target Orbit TCA Probability of collision Miss distance Type
METEOR 1-11 LEO 2024-09-26 19:18:35 0.001331287 222.0 (m) PAYLOAD
FENGYUN 1C DEB SSO 2024-08-18 12:43:29 0.0003591 41.0 (m) DEBRIS

Associated space launch

Chinese satellite reported for atmospheric/ocean/environmental/spatial parameter research purposes, details TBD.

CZ-6A DEB was lifted into orbit during the mission ‘Long March 6A | Yunhai 3’, on board a Long March 6A space rocket.

The launch took place on Nov. 11, 2022, 10:52 p.m. from Launch Complex 9A.

For more information about the launch, click the button.

Launch to space Long March 6A | Yunhai 3
Long March 6A | Yunhai 3

Agency: N/A

Status: Launch Successful

Launch date: Nov. 11, 2022, 10:52 p.m. UTC

Rocket: Long March 6A

Launch pad: Launch Complex 9A

Location: Taiyuan Satellite Launch Center, People's Republic of China

...

Latest news about this satellite

There are no fresh news available about this satellite. Check back as we update our databases every day.


Newsletter sign-up

Weekly statistics, charts and insights to help you stay on top of the space industry.